This demonstration page uses our WeatherBlox Daily Observations layout. Learn more.

39.92423, -83.80882

Hourly Observations for May 25, 2016

Temp ( °F °C ) Dew Point ( °F °C ) Humidity (%) Winds ( mph kmh ) Pressure ( in mb ) Visibility ( mi km ) Precip ( " mm )
12:56 am 00:56 Clear 66 18.8 48 8.8 52 52 S 5 7 30.09 1019 10 16.0934 0 0
1:56 am 01:56 Clear 64 17.7 49 9.4 58 58 S 6 9 30.09 1019 10 16.0934 0 0
2:56 am 02:56 Clear 63 17.2 51 10.5 65 65 S 5 7 30.09 1019 10 16.0934 0 0
3:56 am 03:56 Clear 62 16.6 50 10 65 65 S 5 7 30.1 1019 10 16.0934 0 0
4:56 am 04:56 Clear 63 17.2 50 10 63 63 S 3 6 30.11 1020 10 16.0934 0 0
5:56 am 05:56 Cloudy 64 17.7 51 10.5 63 63 S 6 9 30.11 1020 10 16.0934 0 0
6:56 am 06:56 Sunny 64 17.7 51 10.5 63 63 S 7 11 30.11 1020 10 16.0934 0 0
7:56 am 07:56 Sunny 67 19.4 52 11.1 59 59 S 7 11 30.12 1020 10 16.0934 0 0
8:56 am 08:56 Mostly Cloudy 71 21.6 55 12.7 57 57 S 7 11 30.13 1020 10 16.0934 0 0
9:56 am 09:56 Partly Cloudy 75 23.8 55 12.7 50 50 S 9 15 30.14 1021 10 16.0934 0 0
10:56 am 10:56 Mostly Sunny 76 24.4 56 13.3 50 50 SSW 10 17 30.14 1021 10 16.0934 0 0
11:56 am 11:56 Mostly Sunny 75 23.8 58 14.4 56 56 SW 7 11 30.14 1021 10 16.0934 0 0
12:56 pm 12:56 Mostly Sunny 78 25.5 59 15 52 52 S 12 19 30.14 1021 10 16.0934 0 0
1:56 pm 13:56 Mostly Sunny 80 26.6 60 15.5 51 51 SSE 12 19 30.12 1020 10 16.0934 0 0
2:56 pm 14:56 Sunny 83 28.3 61 16.1 48 48 SSE 9 15 30.1 1019 10 16.0934 0 0
3:56 pm 15:56 Sunny 84 28.8 60 15.5 44 44 S 13 20 30.08 1019 10 16.0934 0 0
4:56 pm 16:56 Mostly Sunny 84 28.8 60 15.5 44 44 SSW 14 22 30.07 1018 10 16.0934 0 0
5:56 pm 17:56 Sunny 82 27.7 61 16.1 49 49 S 16 26 30.06 1018 10 16.0934 0 0
6:56 pm 18:56 Sunny 81 27.2 62 16.6 52 52 S 13 20 30.04 1017 10 16.0934 0 0
7:56 pm 19:56 Sunny 80 26.6 64 17.7 58 58 SSE 12 19 30.03 1017 10 16.0934 0 0
8:56 pm 20:56 Partly Cloudy 76 24.4 64 17.7 66 66 SSE 6 9 30.04 1017 10 16.0934 0 0
9:56 pm 21:56 Mostly Clear 75 23.8 65 18.3 71 71 S 7 11 30.05 1018 10 16.0934 0 0
10:56 pm 22:56 Clear 73 22.7 65 18.3 76 76 S 6 9 30.06 1018 10 16.0934 0 0
11:56 pm 23:56 Clear 72 22.2 64 17.7 76 76 SSW 6 9 30.06 1018 10 16.0934 0 0

Powered by AerisWeather